MARKET Weather Reports


time (UTC)temp
F
wind
direction
speed
knots
gust
knots
rain 1hr
in
rain 24hr
in
rain mn
in
humidity
%
barometer
mb
20260508052734 43 167 7.0 7.8 0.00 0.00 0.00 70 1025.8
20260508050733 43 175 5.2 7.0 0.00 0.00 0.00 70 1025.7
20260508044734 43 162 5.2 6.1 0.00 0.00 0.00 69 1025.5
20260508042733 42 142 7.0 7.0 0.00 0.00 0.00 65 1025.3
20260508040733 42 143 7.0 7.8 0.00 0.00 0.00 65 1025.2
20260508034733 42 141 7.0 7.0 0.00 0.00 0.00 69 1025.0
20260508032733 42 142 7.0 7.8 0.00 0.00 0.00 70 1024.9
20260508031057 43 123 7.0 7.8 0.00 0.00 0.00 64 1024.8
20260508024733 42 114 7.0 7.8 0.00 0.00 0.00 72 1024.5
20260508022732 42 106 7.8 8.7 0.00 0.00 0.00 71 1024.3
20260508020733 43 95 8.7 9.6 0.00 0.00 0.00 66 1024.1
20260508014733 43 93 7.8 7.8 0.00 0.00 0.00 60 1023.9
20260508012732 43 96 7.0 7.8 0.00 0.00 0.00 65 1023.7
20260508010733 43 98 7.0 7.8 0.00 0.00 0.00 63 1023.4
20260508004733 43 93 6.1 7.0 0.00 0.00 0.00 72 1023.3
20260508002733 43 95 7.0 7.0 0.00 0.00 0.00 68 1023.1
20260508000735 43 84 7.0 7.0 0.00 0.00 0.00 69 1022.9
20260507234734 43 79 7.8 8.7 0.00 0.00 0.00 72 1022.8
20260507232732 43 75 8.7 9.6 0.00 0.00 0.00 66 1022.7
20260507230733 43 72 7.0 7.8 0.00 0.00 0.00 73 1022.5
20260507224732 45 69 5.2 7.0 0.00 0.00 0.00 36 1022.2
20260507222733 46 65 5.2 6.1 0.00 0.00 0.00 22 1022.1
20260507220732 45 65 6.1 7.0 0.00 0.00 0.00 33 1022.1
20260507214732 45 74 4.3 7.0 0.00 0.00 0.00 42 1021.9
20260507212731 46 71 4.3 5.2 0.00 0.00 0.00 28 1021.7
20260507210732 45 74 4.3 5.2 0.00 0.00 0.00 43 1021.5
20260507204733 46 96 0.9 1.7 0.00 0.00 0.00 22 1021.2
20260507202732 45 153 1.7 1.7 0.00 0.00 0.00 27 1021.0
20260507200733 46 103 2.6 2.6 0.00 0.00 0.00 37 1020.9
20260507194731 46 94 3.5 4.3 0.00 0.00 0.00 40 1020.6
20260507192731 44 77 5.2 6.1 0.00 0.00 0.00 44 1020.3
20260507190731 46 82 5.2 5.2 0.00 0.00 0.00 27 1020.0
20260507184731 46 94 3.5 4.3 0.00 0.00 0.00 47 1019.5
20260507182730 45 71 5.2 5.2 0.00 0.00 0.00 45 1019.6
20260507180730 49 107 3.5 4.3 0.00 0.00 0.00 37 1019.3
20260507174732 47 96 4.3 4.3 0.00 0.00 0.00 37 1019.3
20260507172730 46 79 5.2 5.2 0.00 0.00 0.00 40 1019.1
20260507170730 47 97 4.3 5.2 0.00 0.00 0.00 45 1018.9
20260507164731 44 80 7.0 7.0 0.00 0.00 0.00 68 1018.8
20260507162731 44 70 7.0 7.8 0.00 0.00 0.00 75 1018.8
20260507160731 43 62 4.3 6.1 0.00 0.00 0.00 78 1018.6
20260507154730 46 107 5.2 6.1 0.00 0.00 0.00 65 1018.2
20260507152730 46 115 5.2 6.1 0.00 0.00 0.00 66 1018.3
20260507150732 46 101 6.1 7.0 0.00 0.00 0.00 66 1018.2
20260507144731 46 106 5.2 7.0 0.00 0.00 0.00 58 1018.0
20260507142732 44 76 7.0 8.7 0.00 0.00 0.00 68 1017.9
20260507140731 45 88 4.3 6.1 0.00 0.00 0.00 54 1017.9
20260507134732 47 171 4.3 5.2 0.00 0.00 0.00 48 1017.8
20260507132730 46 149 6.1 7.0 0.00 0.00 0.00 54 1017.7
20260507130731 48 141 5.2 6.1 0.00 0.00 0.00 46 1017.6
20260507124730 47 149 5.2 6.1 0.00 0.00 0.00 55 1017.5
20260507122729 46 144 7.8 8.7 0.00 0.00 0.00 55 1017.3
20260507120731 46 142 9.6 10.4 0.00 0.00 0.00 55 1017.2
20260507114731 46 142 10.4 11.3 0.00 0.00 0.00 58 1017.1
20260507112729 45 144 8.7 9.6 0.00 0.00 0.00 58 1017.1
20260507110729 46 141 7.0 7.8 0.00 0.00 0.00 55 1017.2
20260507104729 46 138 6.1 7.0 0.00 0.00 0.00 57 1017.0
20260507102729 46 145 7.0 7.8 0.00 0.00 0.00 57 1016.9
20260507100729 45 151 7.8 8.7 0.00 0.00 0.00 59 1016.7
20260507094729 44 156 7.0 7.8 0.00 0.00 0.00 65 1016.6
20260507092729 44 156 7.0 7.8 0.00 0.00 0.00 73 1016.6
20260507090730 44 157 7.0 7.8 0.00 0.00 0.00 76 1016.5
20260507084729 43 158 7.8 8.7 0.00 0.00 0.00 74 1016.4
20260507082729 43 166 7.8 8.7 0.00 0.00 0.00 73 1016.3
20260507080729 43 161 9.6 10.4 0.00 0.00 0.00 77 1016.2
20260507074729 43 160 8.7 10.4 0.00 0.00 0.00 78 1016.3
20260507072729 43 166 8.7 9.6 0.00 0.00 0.00 80 1016.2
20260507070728 42 163 7.8 8.7 0.00 0.00 0.00 82 1016.1
20260507064729 42 169 7.8 9.6 0.00 0.00 0.00 82 1016.0
20260507062728 42 163 9.6 11.3 0.00 0.00 0.00 82 1015.9
20260507060728 42 162 9.6 11.3 0.00 0.00 0.00 80 1015.8
20260507054729 42 164 9.6 10.4 0.00 0.00 0.00 78 1015.6